Akron, OH

5:50 PM EST on February 23, 2018 (GMT -0500)
Akron Fulton International

Weather History for KAKR - November, 2013

Change the Weather History Date:

Tuesday, November 12, 2013

  Actual Average (KCAK) Record (KCAK)
Temperature  
Mean Temperature 30 °F -  
Max Temperature 33 °F 47 °F 72 °F (1949)
Min Temperature 26 °F 32 °F 16 °F (1950)
Degree Days  
Heating Degree Days 36    
Moisture  
Dew Point 25 °F    
Average Humidity 85    
Maximum Humidity 93    
Minimum Humidity 61    
Precipitation  
Precipitation 0.17 in - - ()
Sea Level Pressure  
Sea Level Pressure 30.38 in    
Wind  
Wind Speed 9 mph (NNW)    
Max Wind Speed 18 mph    
Max Gust Speed 29 mph    
Visibility 4 miles    
Events Fog , Snow    
Averages and records for this station are not official NWS values.
T = Trace of Precipitation, MM = Missing Value Source: NWS Daily Summary

Daily Weather History Graph

Daily Weather History Graph

Search for Another Location

Airport or City:

Trip Planner

Search our weather history database for the weather conditions in past years. The results will help you decide how hot, cold, wet, or windy it might be!

Date:

Astronomy

Nov. 12, 2013 Rise Set
Actual Time 7:10 AM EST 5:09 PM EST
Civil Twilight 6:40 AM EST 5:38 PM EST
Nautical Twilight 6:07 AM EST 6:11 PM EST
Astronomical Twilight 5:35 AM EST 6:44 PM EST
Moon 2:25 PM EST (11/12) 1:56 AM EST (11/12)
Length of Visible Light 10h 57m
Length of Day
9h 59m
Waxing Gibbous, 76% of the Moon is Illuminated
Nov 12
Waxing Gibbous
Nov 17
Full
Nov 25
Last Quarter
Dec 2
New
Dec 9
First Quarter

Hourly Weather History & Observations

Time (EST) Temp. Windchill Dew Point Humidity Pressure Visibility Wind Dir Wind Speed Gust Speed Precip Events Conditions
12:06 AM 30.2 °F 21.3 °F 28.4 °F 93% 30.18 in 1.2 mi North 10.4 mph - 0.00 in Snow Light Snow
12:27 AM 30.2 °F 21.3 °F 28.4 °F 93% 30.20 in 1.5 mi North 10.4 mph - 0.00 in Snow Light Snow
12:54 AM 30.0 °F 20.0 °F 28.0 °F 92% 30.22 in 1.5 mi NNW 12.7 mph - 0.00 in Snow Light Snow
1:01 AM 30.2 °F 20.8 °F 28.4 °F 93% 30.20 in 2.0 mi North 11.5 mph - 0.00 in Snow Light Snow
1:15 AM 30.2 °F 22.6 °F 28.4 °F 93% 30.20 in 1.8 mi North 8.1 mph - 0.00 in Snow Light Snow
1:29 AM 30.2 °F 21.3 °F 26.6 °F 86% 30.20 in 2.0 mi North 10.4 mph - 0.00 in Snow Light Snow
1:41 AM 30.2 °F 21.3 °F 26.6 °F 86% 30.21 in 1.8 mi North 10.4 mph - 0.00 in Snow Light Snow
1:54 AM 30.0 °F 22.4 °F 28.0 °F 92% 30.24 in 1.8 mi NNW 8.1 mph - 0.00 in Snow Light Snow
2:12 AM 30.2 °F 23.4 °F 26.6 °F 86% 30.22 in 2.0 mi NNW 6.9 mph - 0.00 in Snow Light Snow
2:19 AM 30.2 °F 22.6 °F 28.4 °F 93% 30.22 in 1.5 mi NNW 8.1 mph - 0.00 in Snow Light Snow
2:26 AM 30.2 °F 24.3 °F 26.6 °F 86% 30.23 in 3.0 mi NNW 5.8 mph - 0.00 in Snow Light Snow
2:37 AM 30.2 °F 21.9 °F 26.6 °F 86% 30.23 in 9.0 mi NNW 9.2 mph - 0.00 in   Overcast
2:44 AM 30.2 °F 23.4 °F 26.6 °F 86% 30.24 in 10.0 mi NW 6.9 mph - 0.00 in   Overcast
2:54 AM 30.0 °F 23.2 °F 27.0 °F 88% 30.26 in 10.0 mi NW 6.9 mph - 0.00 in   Overcast
3:54 AM 30.0 °F 20.5 °F 26.1 °F 85% 30.27 in 10.0 mi NNW 11.5 mph 16.1 mph 0.00 in Snow Light Snow
4:54 AM 28.9 °F 20.4 °F 25.0 °F 85% 30.29 in 6.0 mi NW 9.2 mph - 0.00 in Snow Light Snow
5:54 AM 28.9 °F 20.4 °F 24.1 °F 82% 30.32 in 9.0 mi NNW 9.2 mph - 0.00 in   Overcast
6:54 AM 28.0 °F 20.8 °F 23.0 °F 81% 30.35 in 9.0 mi NW 6.9 mph - 0.00 in   Overcast
7:07 AM 28.4 °F 19.1 °F 23.0 °F 80% 30.33 in 2.5 mi NNW 10.4 mph - 0.00 in Snow Light Snow
7:23 AM 28.4 °F 19.1 °F 23.0 °F 80% 30.34 in 3.0 mi NNW 10.4 mph - 0.00 in Snow Light Snow
7:31 AM 28.4 °F 22.2 °F 23.0 °F 80% 30.34 in 5.0 mi NNW 5.8 mph - 0.00 in Snow Light Snow
7:42 AM 28.4 °F 19.1 °F 23.0 °F 80% 30.35 in 2.5 mi NNW 10.4 mph - 0.00 in Snow Light Snow
7:50 AM 28.4 °F 19.7 °F 24.8 °F 86% 30.36 in 0.8 mi NW 9.2 mph - 0.00 in Snow Light Snow
7:51 AM 28.0 °F 19.3 °F 24.1 °F 85% 30.39 in 0.5 mi NW 9.2 mph - 0.00 in Fog , Snow Light Snow
7:57 AM 26.6 °F 19.1 °F 24.8 °F 93% 30.36 in 0.2 mi NNW 6.9 mph - 0.00 in Fog , Snow Heavy Snow
8:07 AM 26.6 °F 19.1 °F 24.8 °F 93% 30.37 in 0.2 mi NNW 6.9 mph - 0.00 in Fog , Snow Snow
8:11 AM 26.6 °F 19.1 °F 24.8 °F 93% 30.37 in 1.0 mi NNW 6.9 mph - 0.00 in Snow Light Snow
8:14 AM 26.6 °F 21.2 °F 24.8 °F 93% 30.37 in 2.5 mi NW 4.6 mph - 0.00 in Snow Light Snow
8:17 AM 26.6 °F 19.1 °F 24.8 °F 93% 30.37 in 5.0 mi NW 6.9 mph - 0.00 in Snow Light Snow
8:25 AM 26.6 °F 21.2 °F 24.8 °F 93% 30.37 in 9.0 mi NW 4.6 mph - 0.00 in   Scattered Clouds
8:36 AM 26.6 °F 22.6 °F 24.8 °F 93% 30.38 in 10.0 mi North 3.5 mph - 0.00 in   Scattered Clouds
8:45 AM 28.4 °F 21.2 °F 24.8 °F 86% 30.38 in 1.8 mi NNW 6.9 mph - 0.00 in Snow Light Snow
8:49 AM 28.4 °F 20.4 °F 26.6 °F 93% 30.38 in 0.8 mi NNW 8.1 mph - 0.00 in Snow Light Snow
8:54 AM 28.0 °F 20.8 °F 25.0 °F 88% 30.42 in 0.5 mi North 6.9 mph - 0.00 in Fog , Snow Light Snow
9:03 AM 28.4 °F 19.7 °F 26.6 °F 93% 30.39 in 0.5 mi NNW 9.2 mph - 0.00 in Fog , Snow Snow
9:08 AM 28.4 °F 20.4 °F 26.6 °F 93% 30.39 in 0.2 mi NNW 8.1 mph - 0.00 in Fog , Snow Heavy Snow
9:16 AM 28.4 °F 22.2 °F 26.6 °F 93% 30.39 in 1.0 mi North 5.8 mph - 0.00 in Snow Light Snow
9:27 AM 28.4 °F 22.2 °F 24.8 °F 86% 30.39 in 2.5 mi NNW 5.8 mph - 0.00 in Snow Light Snow
9:32 AM 28.4 °F 23.3 °F 24.8 °F 86% 30.39 in 6.0 mi North 4.6 mph - 0.01 in Snow Light Snow
9:45 AM 28.4 °F 23.3 °F 26.6 °F 93% 30.40 in 10.0 mi North 4.6 mph - 0.01 in   Partly Cloudy
9:54 AM 30.0 °F 23.2 °F 25.0 °F 82% 30.43 in 10.0 mi NNW 6.9 mph - 0.02 in   Partly Cloudy
10:36 AM 30.2 °F 18.9 °F 24.8 °F 80% 30.41 in 2.5 mi NNW 16.1 mph 20.7 mph 0.04 in Snow Light Snow
10:39 AM 30.2 °F 19.8 °F 24.8 °F 80% 30.41 in 0.8 mi NNW 13.8 mph - 0.04 in Snow Light Snow
10:49 AM 28.4 °F 18.0 °F 26.6 °F 93% 30.41 in 0.5 mi North 12.7 mph - 0.05 in Fog , Snow Snow
10:54 AM 28.9 °F 20.4 °F 26.1 °F 89% 30.45 in 0.5 mi North 9.2 mph - 0.05 in Fog , Snow Light Snow
11:06 AM 28.4 °F 19.7 °F 26.6 °F 93% 30.41 in 1.0 mi North 9.2 mph - 0.00 in Snow Light Snow
11:12 AM 30.2 °F 21.9 °F 26.6 °F 86% 30.41 in 2.0 mi North 9.2 mph - 0.00 in Snow Light Snow
11:21 AM 30.2 °F 21.9 °F 26.6 °F 86% 30.41 in 4.0 mi North 9.2 mph - 0.00 in Snow Light Snow
11:32 AM 32.0 °F 24.8 °F 26.6 °F 80% 30.41 in 9.0 mi North 8.1 mph - 0.01 in   Mostly Cloudy
11:51 AM 30.2 °F 18.5 °F 24.8 °F 80% 30.41 in 1.8 mi NNW 17.3 mph 20.7 mph 0.05 in Snow Light Snow
11:54 AM 30.0 °F 20.5 °F 26.1 °F 85% 30.45 in 1.0 mi NNW 11.5 mph 20.7 mph 0.05 in Snow Light Snow
12:04 PM 28.4 °F 19.7 °F 26.6 °F 93% 30.41 in 1.8 mi North 9.2 mph - 0.00 in Snow Light Snow
12:06 PM 28.4 °F 20.4 °F 26.6 °F 93% 30.41 in 3.0 mi NNW 8.1 mph - 0.00 in Snow Light Snow
12:54 PM 33.1 °F 25.5 °F 25.0 °F 72% 30.44 in 10.0 mi North 9.2 mph 16.1 mph 0.03 in   Partly Cloudy
1:08 PM 30.2 °F 20.8 °F 24.8 °F 80% 30.41 in 2.0 mi North 11.5 mph - 0.01 in Snow Light Snow
1:11 PM 30.2 °F 20.8 °F 26.6 °F 86% 30.41 in 0.8 mi North 11.5 mph - 0.01 in Snow Light Snow
1:21 PM 30.2 °F 21.9 °F 26.6 °F 86% 30.41 in 0.5 mi NNE 9.2 mph - 0.01 in Fog , Snow Light Snow
1:25 PM 30.2 °F 20.8 °F 26.6 °F 86% 30.41 in 1.0 mi North 11.5 mph - 0.01 in Snow Light Snow
1:36 PM 28.4 °F 19.7 °F 26.6 °F 93% 30.41 in 0.5 mi North 9.2 mph - 0.01 in Fog , Snow Snow
1:54 PM 30.0 °F 24.1 °F 27.0 °F 88% 30.45 in 0.5 mi North 5.8 mph - 0.01 in Fog , Snow Snow
1:56 PM 30.2 °F 25.4 °F 26.6 °F 86% 30.41 in 0.8 mi North 4.6 mph - 0.00 in Snow Light Snow
2:00 PM 30.2 °F 23.4 °F 26.6 °F 86% 30.41 in 2.0 mi North 6.9 mph - 0.00 in Snow Light Snow
2:08 PM 30.2 °F 23.4 °F 26.6 °F 86% 30.40 in 9.0 mi NNW 6.9 mph - 0.00 in   Mostly Cloudy
2:38 PM 30.2 °F 18.1 °F 26.6 °F 86% 30.42 in 1.2 mi North 18.4 mph 28.8 mph 0.01 in Snow Light Snow
2:43 PM 30.2 °F 19.3 °F 26.6 °F 86% 30.42 in 0.2 mi North 15.0 mph 28.8 mph 0.01 in Fog , Snow Snow
2:54 PM 30.0 °F 21.1 °F 27.0 °F 88% 30.46 in 0.8 mi North 10.4 mph - 0.01 in Snow Light Snow
2:58 PM 30.2 °F 21.9 °F 26.6 °F 86% 30.42 in 2.0 mi North 9.2 mph - 0.00 in Snow Light Snow
3:00 PM 30.2 °F 22.6 °F 26.6 °F 86% 30.42 in 4.0 mi NNW 8.1 mph - 0.00 in Snow Light Snow
3:54 PM 30.9 °F 22.2 °F 21.0 °F 67% 30.47 in 10.0 mi NNW 10.4 mph - 0.00 in   Mostly Cloudy
4:54 PM 30.0 °F 19.5 °F 18.0 °F 61% 30.48 in 10.0 mi NW 13.8 mph - N/A   Clear
5:54 PM 30.0 °F 19.5 °F 21.0 °F 69% 30.48 in 6.0 mi NW 13.8 mph 19.6 mph 0.00 in Snow Light Snow
6:54 PM 28.9 °F 19.8 °F 21.9 °F 75% 30.49 in 10.0 mi West 10.4 mph - 0.00 in   Overcast
7:54 PM 28.0 °F 19.3 °F 23.0 °F 81% 30.50 in 10.0 mi West 9.2 mph - N/A   Overcast
8:54 PM 28.0 °F 18.6 °F 21.9 °F 78% 30.51 in 5.0 mi West 10.4 mph - 0.00 in Snow Light Snow
9:54 PM 28.9 °F 20.4 °F 19.9 °F 69% 30.51 in 10.0 mi WNW 9.2 mph - 0.00 in   Overcast
10:54 PM 28.0 °F 18.1 °F 21.9 °F 78% 30.51 in 10.0 mi West 11.5 mph - N/A   Overcast
11:17 PM 28.4 °F 19.7 °F 21.2 °F 74% 30.47 in 2.5 mi WNW 9.2 mph - 0.00 in Snow Light Snow
11:31 PM 28.4 °F 19.7 °F 21.2 °F 74% 30.47 in 5.0 mi WNW 9.2 mph - 0.00 in Snow Light Snow
11:54 PM 28.0 °F 20.0 °F 21.0 °F 75% 30.50 in 7.0 mi WNW 8.1 mph - 0.00 in Snow Light Snow